[[{"header":{"parameterUnit":"m.s-1","parameterCategory":1,"la1":30.2992,"la2":30.254,"lo1":-89.0895,"lo2":-89.0443,"dy":0.0025,"dx":0.0025,"nx":19,"ny":19,"refTime":"2026-03-16T03:00:00:Z","depth":0,"parameterNumber":2,"parameterNumberName":"U-component_of_WINDS"},"data":[0,0,0,4.7428,4.743,4.7487,4.7487,4.7572,4.7572,0,0,0,0,0,0,0,0,0,0,0,4.7417,4.7418,4.7428,4.743,4.7487,4.7487,4.7571,4.7572,0,0,0,0,0,0,0,0,0,0,0,4.7417,4.7418,4.7419,4.743,4.7487,4.7487,4.7571,4.7524,0,0,0,0,0,0,0,0,0,0,4.7466,4.7462,4.7418,4.7419,4.743,4.7487,4.7488,4.7521,4.7527,4.755,0,4.7572,0,4.7574,4.7579,4.7579,0,0,0,4.7425,4.7458,4.7468,4.7419,4.7431,4.7487,4.746,4.7524,4.753,4.7557,4.7574,4.7576,4.7575,4.7579,4.758,4.7733,4.7734,0,0,4.7421,4.7431,4.7464,4.7472,4.7464,4.7458,4.7462,4.7528,4.7546,4.7574,4.7578,4.7577,4.758,4.7581,4.7732,4.7733,0,0,0,4.7416,4.7429,4.7437,4.7469,4.7479,4.746,4.7464,4.7543,4.7545,4.7579,4.7578,4.7581,4.7582,4.7731,4.7732,4.7789,0,0,0,4.7414,4.7425,4.7436,4.7442,4.7478,4.7512,4.7478,4.754,4.7548,4.7577,4.7581,4.7583,4.773,4.7732,4.7786,4.7814,0,0,0,4.7411,4.7425,4.7436,4.7443,4.7468,4.751,4.7516,4.7542,4.7547,4.7579,4.7583,4.7729,4.7731,4.7782,4.7808,4.7858,0,0,0,4.7411,4.7484,4.7437,4.7518,4.7468,4.7546,4.7515,4.7573,4.7607,4.7581,4.773,4.7732,4.7781,4.7805,4.7855,4.7901,4.7922,0,0,4.7508,4.7496,4.7543,4.7502,4.7592,4.7536,4.7634,4.7655,4.7649,4.7705,4.7709,4.7787,4.7808,4.7857,4.8034,4.805,0,0,0,4.7577,4.7611,4.7632,4.7666,4.7686,4.7705,4.7712,4.772,4.7768,4.768,4.7818,4.783,4.7859,4.7881,4.7895,4.7919,4.7743,4.7743,4.7742,4.7725,4.7716,4.7794,4.7792,4.7825,4.7833,4.7859,4.7872,4.785,4.7883,4.7899,4.8008,4.8034,4.8045,4.807,4.7924,4.7924,4.7924,4.7924,4.7866,4.7913,4.7886,4.7952,4.7942,4.7996,4.8007,4.7991,4.8041,4.7994,4.8019,4.7969,4.8063,4.8085,4.7928,4.7928,4.7927,4.7927,4.7927,4.7962,4.7983,4.7994,4.8045,4.8085,4.808,4.8131,4.8119,4.8108,4.8132,4.8149,4.8148,4.8146,4.8141,4.8142,4.8142,4.8143,4.8143,4.8143,4.8057,4.8068,4.8112,4.8142,4.8164,4.8191,4.8202,4.8223,4.8243,4.8231,4.8231,4.8207,4.8074,4.8041,4.8149,4.8148,4.8147,4.8146,4.8146,4.8203,4.8169,4.8237,4.826,4.8295,4.8337,4.8323,4.8367,4.8383,4.8408,4.838,4.8284,4.827,4.8259,4.8231,4.8382,4.8382,4.8382,4.8382,4.8284,4.8277,4.8345,4.8382,4.8417,4.8412,4.849,4.8501,4.8505,4.8515,4.8492,4.8454,4.8444,4.8436,4.8421,4.8395,4.8584,4.8584,4.8584,4.8373,4.837,4.8438,4.8444,4.8472,4.8496,4.857,4.8614,4.8612,4.8592,4.8522,4.8514,4.8453,4.8434,4.8411,4.8388,4.834,0,0]},{"header":{"parameterUnit":"m.s-1","parameterCategory":1,"la1":30.2992,"la2":30.254,"lo1":-89.0895,"lo2":-89.0443,"dy":0.0025,"dx":0.0025,"nx":19,"ny":19,"refTime":"2026-03-16T03:00:00:Z","depth":0,"parameterNumber":3,"parameterNumberName":"V-component_of_WINDS"},"data":[0,0,0,-8.0772,-8.0776,-8.095,-8.0951,-8.1174,-8.1177,0,0,0,0,0,0,0,0,0,0,0,-8.0723,-8.0724,-8.0772,-8.0776,-8.095,-8.0951,-8.1174,-8.1177,0,0,0,0,0,0,0,0,0,0,0,-8.0722,-8.0724,-8.0726,-8.0777,-8.095,-8.0951,-8.1174,-8.1041,0,0,0,0,0,0,0,0,0,0,-8.0872,-8.0829,-8.0723,-8.0726,-8.0778,-8.095,-8.0951,-8.1035,-8.105,-8.1097,0,-8.1141,0,-8.1163,-8.1192,-8.1193,0,0,0,-8.0773,-8.0817,-8.0862,-8.0726,-8.0779,-8.095,-8.0871,-8.1043,-8.106,-8.1116,-8.1144,-8.1152,-8.1166,-8.1193,-8.1194,-8.1481,-8.1482,0,0,-8.0764,-8.0754,-8.0851,-8.0873,-8.0849,-8.0865,-8.0876,-8.1053,-8.1082,-8.1145,-8.1157,-8.117,-8.1195,-8.1196,-8.1479,-8.1481,0,0,0,-8.0738,-8.0748,-8.0789,-8.0864,-8.0895,-8.087,-8.0883,-8.1074,-8.1088,-8.116,-8.1173,-8.1196,-8.1199,-8.1478,-8.148,-8.1545,0,0,0,-8.0732,-8.0733,-8.0785,-8.0781,-8.0892,-8.0987,-8.09,-8.1076,-8.1096,-8.1171,-8.1196,-8.1201,-8.1476,-8.1479,-8.1539,-8.1576,0,0,0,-8.071,-8.073,-8.0757,-8.078,-8.0855,-8.0985,-8.1009,-8.1081,-8.1104,-8.1193,-8.1202,-8.1475,-8.1478,-8.1535,-8.1568,-8.165,0,0,0,-8.0684,-8.0809,-8.0757,-8.0902,-8.0853,-8.1024,-8.1008,-8.1135,-8.1218,-8.1197,-8.1476,-8.148,-8.1533,-8.1564,-8.1645,-8.1717,-8.1746,0,0,-8.0836,-8.0827,-8.0913,-8.0872,-8.1051,-8.0998,-8.1186,-8.1269,-8.1284,-8.1414,-8.1421,-8.1541,-8.1568,-8.1649,-8.1913,-8.1936,0,0,0,-8.0958,-8.102,-8.107,-8.1151,-8.122,-8.1282,-8.1339,-8.137,-8.1482,-8.135,-8.1593,-8.1609,-8.1657,-8.1691,-8.1711,-8.1753,-8.1495,-8.1495,-8.1495,-8.1159,-8.1176,-8.132,-8.1358,-8.1437,-8.1496,-8.1561,-8.1613,-8.1603,-8.1661,-8.1699,-8.1858,-8.1898,-8.1913,-8.1957,-8.1738,-8.1739,-8.1739,-8.1739,-8.1385,-8.1475,-8.1464,-8.16,-8.1616,-8.173,-8.1792,-8.1782,-8.189,-8.183,-8.1872,-8.1805,-8.1938,-8.1977,-8.1744,-8.1743,-8.1743,-8.1742,-8.1742,-8.1518,-8.1564,-8.1603,-8.1724,-8.1815,-8.1849,-8.1954,-8.1964,-8.1974,-8.2016,-8.2058,-8.2057,-8.2058,-8.2036,-8.2037,-8.2037,-8.2038,-8.2038,-8.2038,-8.1641,-8.1683,-8.1771,-8.1858,-8.1913,-8.1986,-8.2049,-8.2103,-8.2164,-8.2163,-8.2164,-8.2149,-8.1949,-8.1898,-8.2047,-8.2045,-8.2044,-8.2043,-8.2043,-8.1862,-8.1815,-8.1952,-8.2007,-8.2111,-8.2202,-8.2215,-8.2324,-8.2369,-8.2421,-8.2399,-8.2249,-8.2239,-8.2223,-8.2181,-8.2395,-8.2395,-8.2395,-8.2395,-8.1975,-8.1972,-8.2116,-8.2204,-8.2292,-8.2319,-8.2472,-8.2523,-8.2567,-8.2597,-8.2567,-8.2513,-8.2497,-8.2496,-8.2475,-8.2436,-8.2709,-8.2709,-8.271,-8.2112,-8.2119,-8.2248,-8.2295,-8.2378,-8.2448,-8.2594,-8.2694,-8.2734,-8.2723,-8.262,-8.2607,-8.2519,-8.249,-8.2473,-8.244,-8.2369,0,0]}]]